CMB4361 KRME-KXTA

Flight info

Callsign CMB4361
Flight time N/A
Altitude 34000
Route GONZZ Q29 WWSHR WATSN MZV/N0473F360 DIYAP Q136 KAWWA/N0471F380 Q136 GDGET ILC PANAC GHABY LMX RKEEE
Aircraft CL60/M-SBDE1E2E3FGHIJ1J4J5J7M3RWXYZ/LB1V1D1

Departure

Time 2026-04-24 23:55
Airport Griffiss International Airport (KRME)

Arrival

Time N/A
Airport Homey (Area 51) Airport (KXTA)
Time Latitude Longitude Altitude Speed Heading
2026-04-24 23:45 43.22773 -75.40653 480 ft 0 kts 132°
2026-04-24 23:52 43.22733 -75.40540 480 ft 17 kts 127°
2026-04-24 23:52 43.22694 -75.40382 480 ft 10 kts 54°
2026-04-24 23:53 43.22740 -75.40276 480 ft 12 kts 90°
2026-04-24 23:53 43.22659 -75.40108 481 ft 25 kts 135°
2026-04-24 23:53 43.22495 -75.39873 479 ft 31 kts 135°
2026-04-24 23:53 43.22318 -75.39625 477 ft 32 kts 132°
2026-04-24 23:54 43.22160 -75.39397 475 ft 19 kts 130°
2026-04-24 23:54 43.22191 -75.39270 478 ft 13 kts 43°
2026-04-24 23:54 43.22212 -75.39241 479 ft 0 kts 47°
2026-04-24 23:54 43.22331 -75.39226 487 ft 33 kts 319°
2026-04-24 23:55 43.22724 -75.39779 491 ft 116 kts 315°
2026-04-24 23:55 43.23516 -75.40901 617 ft 172 kts 315°
2026-04-24 23:55 43.24487 -75.42221 1197 ft 199 kts 314°
2026-04-24 23:55 43.25616 -75.43826 1742 ft 227 kts 313°
2026-04-24 23:56 43.26860 -75.45618 2442 ft 236 kts 313°
2026-04-24 23:56 43.28105 -75.47411 3133 ft 239 kts 313°
2026-04-24 23:56 43.29368 -75.49237 3770 ft 243 kts 314°
2026-04-24 23:56 43.30683 -75.51144 3993 ft 246 kts 314°
2026-04-24 23:57 43.31991 -75.53050 3992 ft 242 kts 314°